Weather History for KEDJ - April, 2014

Change the Weather History Date:

Monday, April 14, 2014

  Actual Average (KDAY) Record (KDAY)
Temperature  
Mean Temperature 53 °F 51 °F  
Max Temperature 69 °F 62 °F 82 °F (1941)
Min Temperature 35 °F 41 °F 22 °F (1950)
Degree Days  
Heating Degree Days 12 14  
Month to date heating degree days 230  
Since 1 July heating degree days 5269  
Cooling Degree Days 0 0  
Month to date cooling degree days 0  
Year to date cooling degree days 0  
Growing Degree Days 3 (Base 50)    
Moisture  
Dew Point 51 °F    
Average Humidity 83    
Maximum Humidity 100    
Minimum Humidity 46    
Precipitation  
Precipitation 0.22 in 0.13 in 2.16 in (1922)
Month to date precipitation 1.83  
Year to date precipitation 10.12  
Snow  
Snow 0.00 in 0.00 in 1.50 in (1904)
Month to date snowfall 0.5  
Since 1 July snowfall 23.2  
Snow Depth -    
Sea Level Pressure  
Sea Level Pressure 29.66 in    
Wind  
Wind Speed 17 mph (SW)    
Max Wind Speed 31 mph    
Max Gust Speed 47 mph    
Visibility 8 miles    
Events      
T = Trace of Precipitation, MM = Missing Value Source: NWS Daily Summary

Daily Weather History Graph

Daily Weather History Graph

Search for Another Location

Airport or City:

Trip Planner

Search our weather history database for the weather conditions in past years. The results will help you decide how hot, cold, wet, or windy it might be!

Date:

Astronomy

Apr. 14, 2014 Rise Set
Actual Time 6:58 AM EDT 8:13 PM EDT
Civil Twilight 6:30 AM EDT 8:41 PM EDT
Nautical Twilight 5:56 AM EDT 9:15 PM EDT
Astronomical Twilight 5:21 AM EDT 9:50 PM EDT
Moon 7:51 PM EDT (4/14) 6:30 AM EDT (4/14)
Length of Visible Light 14h 11m
Length of Day
13h 14m
Full, 100% of the Moon is Illuminated
Apr 14
Full
Apr 15
Full
Apr 22
Last Quarter
Apr 29
New
May 6
First Quarter

Hourly Weather History & Observations

Time (EDT) Temp. Windchill Dew Point Humidity Pressure Visibility Wind Dir Wind Speed Gust Speed Precip Events Conditions
12:10 AM 66.2 °F - 44.6 °F 46% 29.71 in 10.0 mi South 12.7 mph - 0.00 in   Clear
12:30 AM 64.4 °F - 44.6 °F 49% 29.70 in 10.0 mi South 12.7 mph - 0.00 in   Clear
12:50 AM 64.4 °F - 44.6 °F 49% 29.70 in 10.0 mi South 13.8 mph - 0.00 in   Clear
1:10 AM 66.2 °F - 46.4 °F 49% 29.69 in 10.0 mi South 13.8 mph - 0.00 in   Clear
1:30 AM 66.2 °F - 46.4 °F 49% 29.68 in 10.0 mi South 16.1 mph - 0.00 in   Clear
1:50 AM 68.0 °F - 48.2 °F 49% 29.67 in 10.0 mi South 18.4 mph 24.2 mph 0.00 in   Clear
2:10 AM 68.0 °F - 48.2 °F 49% 29.66 in 10.0 mi South 16.1 mph - 0.00 in   Clear
2:30 AM 66.2 °F - 50.0 °F 56% 29.65 in 10.0 mi South 15.0 mph 23.0 mph 0.00 in   Clear
2:50 AM 66.2 °F - 51.8 °F 60% 29.64 in 10.0 mi South 13.8 mph 23.0 mph 0.00 in   Clear
3:10 AM 66.2 °F - 51.8 °F 60% 29.63 in 10.0 mi South 17.3 mph 25.3 mph 0.00 in   Clear
3:30 AM 68.0 °F - 51.8 °F 56% 29.63 in 10.0 mi South 19.6 mph 27.6 mph 0.00 in   Clear
3:50 AM 68.0 °F - 51.8 °F 56% 29.63 in 10.0 mi South 19.6 mph 31.1 mph 0.00 in   Clear
4:10 AM 68.0 °F - 51.8 °F 56% 29.62 in 10.0 mi South 19.6 mph 27.6 mph 0.00 in   Clear
4:30 AM 68.0 °F - 51.8 °F 56% 29.61 in 10.0 mi South 19.6 mph 29.9 mph 0.00 in   Partly Cloudy
4:50 AM 68.0 °F - 51.8 °F 56% 29.60 in 10.0 mi South 25.3 mph 32.2 mph 0.00 in   Clear
5:10 AM 69.8 °F - 51.8 °F 53% 29.59 in 10.0 mi South 26.5 mph 33.4 mph 0.00 in   Partly Cloudy
5:30 AM 69.8 °F - 51.8 °F 53% 29.58 in 10.0 mi South 24.2 mph 31.1 mph 0.00 in   Mostly Cloudy
5:50 AM 69.8 °F - 51.8 °F 53% 29.57 in 10.0 mi South 25.3 mph 38.0 mph 0.00 in   Mostly Cloudy
6:10 AM 68.0 °F - 51.8 °F 56% 29.56 in 10.0 mi South 23.0 mph 38.0 mph 0.00 in   Scattered Clouds
6:30 AM 68.0 °F - 51.8 °F 56% 29.57 in 10.0 mi South 31.1 mph 43.7 mph 0.00 in   Clear
6:50 AM 66.2 °F - 53.6 °F 64% 29.58 in 10.0 mi South 29.9 mph 42.6 mph 0.00 in   Clear
7:10 AM 64.4 °F - 53.6 °F 68% 29.60 in 10.0 mi South 27.6 mph 40.3 mph 0.00 in   Clear
7:30 AM 62.6 °F - 55.4 °F 77% 29.62 in 9.0 mi SSW 24.2 mph 47.2 mph 0.00 in   Clear
7:50 AM 62.6 °F - 55.4 °F 77% 29.62 in 10.0 mi South 24.2 mph 36.8 mph 0.00 in   Clear
8:10 AM 62.6 °F - 55.4 °F 77% 29.62 in 10.0 mi SSW 28.8 mph 34.5 mph 0.00 in   Scattered Clouds
8:30 AM 62.6 °F - 55.4 °F 77% 29.62 in 10.0 mi SSW 20.7 mph 32.2 mph 0.00 in   Partly Cloudy
8:50 AM 62.6 °F - 55.4 °F 77% 29.63 in 10.0 mi SSW 23.0 mph 27.6 mph 0.00 in   Mostly Cloudy
9:10 AM 60.8 °F - 57.2 °F 88% 29.62 in 10.0 mi SSW 20.7 mph 26.5 mph 0.00 in   Overcast
9:30 AM 60.8 °F - 59.0 °F 94% 29.62 in 2.0 mi SSW 25.3 mph 31.1 mph 0.00 in   Overcast
9:50 AM 60.8 °F - 60.8 °F 100% 29.62 in 10.0 mi South 16.1 mph 21.9 mph 0.00 in   Mostly Cloudy
10:10 AM 60.8 °F - 60.8 °F 100% 29.62 in 8.0 mi South 18.4 mph 27.6 mph 0.00 in   Overcast
10:30 AM 60.8 °F - 60.8 °F 100% 29.62 in 5.0 mi SSW 23.0 mph 29.9 mph 0.02 in   Overcast
10:50 AM 60.8 °F - 60.8 °F 100% 29.63 in 5.0 mi SSW 20.7 mph 31.1 mph 0.02 in   Overcast
11:10 AM 60.8 °F - 60.8 °F 100% 29.64 in 5.0 mi SSW 21.9 mph 31.1 mph 0.00 in   Overcast
11:30 AM 60.8 °F - 60.8 °F 100% 29.64 in 10.0 mi SSW 25.3 mph 35.7 mph 0.00 in   Overcast
11:50 AM 60.8 °F - 60.8 °F 100% 29.64 in 10.0 mi SSW 24.2 mph 33.4 mph 0.00 in   Overcast
12:10 PM 62.6 °F - 60.8 °F 94% 29.64 in 10.0 mi SSW 16.1 mph 28.8 mph 0.00 in   Mostly Cloudy
12:30 PM 60.8 °F - 60.8 °F 100% 29.64 in 10.0 mi SSW 18.4 mph - 0.00 in   Overcast
12:50 PM 60.8 °F - 60.8 °F 100% 29.64 in 5.0 mi SSW 23.0 mph 28.8 mph 0.00 in   Overcast
1:10 PM 62.6 °F - 59.0 °F 88% 29.64 in 10.0 mi SSW 18.4 mph 26.5 mph 0.00 in   Mostly Cloudy
1:30 PM 62.6 °F - 59.0 °F 88% 29.64 in 5.0 mi SSW 18.4 mph 28.8 mph 0.00 in   Overcast
1:50 PM 60.8 °F - 60.8 °F 100% 29.65 in 3.0 mi WSW 15.0 mph 21.9 mph 0.02 in   Overcast
2:10 PM 60.8 °F - 60.8 °F 100% 29.64 in 3.0 mi SW 19.6 mph 24.2 mph 0.04 in   Overcast
2:30 PM 60.8 °F - 60.8 °F 100% 29.64 in 10.0 mi SW 13.8 mph - 0.05 in   Mostly Cloudy
2:50 PM 62.6 °F - 60.8 °F 94% 29.64 in 10.0 mi SSW 16.1 mph - 0.05 in   Mostly Cloudy
3:10 PM 62.6 °F - 59.0 °F 88% 29.64 in 10.0 mi SSW 11.5 mph - 0.00 in   Overcast
3:30 PM 57.2 °F - 57.2 °F 100% 29.65 in 10.0 mi WNW 10.4 mph 20.7 mph 0.00 in   Overcast
3:50 PM 55.4 °F - 55.4 °F 100% 29.67 in 10.0 mi West 10.4 mph - 0.00 in   Overcast
4:10 PM 53.6 °F - 53.6 °F 100% 29.68 in 8.0 mi West 12.7 mph 18.4 mph 0.00 in   Overcast
4:30 PM 51.8 °F - 51.8 °F 100% 29.68 in 9.0 mi WNW 15.0 mph 20.7 mph 0.00 in   Overcast
4:50 PM 50.0 °F - 50.0 °F 100% 29.69 in 10.0 mi NW 12.7 mph 20.7 mph 0.00 in   Overcast
5:10 PM 48.2 °F - 48.2 °F 100% 29.69 in 10.0 mi WNW 9.2 mph 16.1 mph 0.00 in   Overcast
5:30 PM 48.2 °F - 48.2 °F 100% 29.69 in 10.0 mi West 9.2 mph - 0.00 in   Overcast
5:50 PM 48.2 °F - 46.4 °F 93% 29.69 in 10.0 mi WNW 10.4 mph 16.1 mph 0.00 in   Overcast
6:10 PM 48.2 °F - 46.4 °F 93% 29.69 in 10.0 mi WNW 8.1 mph - 0.00 in   Overcast
6:30 PM 46.4 °F 42.9 °F 44.6 °F 93% 29.69 in 10.0 mi WNW 6.9 mph - 0.00 in   Overcast
6:50 PM 46.4 °F 42.9 °F 44.6 °F 93% 29.68 in 10.0 mi NW 6.9 mph - 0.00 in   Overcast
7:10 PM 46.4 °F 42.9 °F 44.6 °F 93% 29.69 in 10.0 mi WNW 6.9 mph - 0.00 in   Overcast
7:30 PM 46.4 °F 43.5 °F 44.6 °F 93% 29.70 in 10.0 mi NW 5.8 mph - 0.00 in   Overcast
7:50 PM 44.6 °F 38.8 °F 44.6 °F 100% 29.71 in 10.0 mi WNW 11.5 mph - 0.00 in   Overcast
8:10 PM 44.6 °F 40.7 °F 42.8 °F 93% 29.70 in 10.0 mi WNW 6.9 mph - 0.00 in   Overcast
8:30 PM 44.6 °F 40.7 °F 44.6 °F 100% 29.70 in 9.0 mi NW 6.9 mph - 0.00 in   Overcast
8:50 PM 42.8 °F 36.2 °F 42.8 °F 100% 29.72 in 9.0 mi WNW 12.7 mph - 0.00 in   Overcast
9:10 PM 42.8 °F 36.2 °F 42.8 °F 100% 29.72 in 7.0 mi WNW 12.7 mph 16.1 mph 0.00 in   Overcast
9:30 PM 42.8 °F 37.0 °F 42.8 °F 100% 29.71 in 2.0 mi NW 10.4 mph - 0.00 in   Overcast
9:50 PM 41.0 °F 33.5 °F 41.0 °F 100% 29.72 in 5.0 mi WNW 13.8 mph 19.6 mph 0.00 in   Overcast
10:10 PM 39.2 °F 32.0 °F 39.2 °F 100% 29.74 in 3.0 mi WNW 11.5 mph - 0.03 in   Overcast
10:30 PM 37.4 °F 28.5 °F 37.4 °F 100% 29.74 in 3.0 mi NW 15.0 mph 21.9 mph 0.08 in   Overcast
10:50 PM 37.4 °F 30.3 °F 37.4 °F 100% 29.74 in 5.0 mi WNW 10.4 mph - 0.10 in   Overcast
11:10 PM 37.4 °F 28.2 °F 37.4 °F 100% 29.73 in 6.0 mi WNW 16.1 mph - 0.01 in   Overcast
11:30 PM 37.4 °F 28.5 °F 37.4 °F 100% 29.75 in 5.0 mi WNW 15.0 mph - 0.01 in   Overcast
11:50 PM 35.6 °F 25.2 °F 35.6 °F 100% 29.74 in 4.0 mi WNW 18.4 mph 24.2 mph 0.03 in   Overcast